Regional Weather Roundup
Issued by NWS Charleston, WV

Home | Current Version | Previous Version | Text Only | Print | Product List | Glossary Off
Versions: 1 2 3 4 5 6 7 8 9 10 11 12 13 14 15 16 17 18 19 20 21 22 23 24 25 26 27 28 29 30 31 32 33 34 35 36 37 38 39 40 41 42 43 44 45 46 47 48 49 50

000
ASUS41 KRLX 011310
RWRRLX
West Virginia Regional Weather Roundup
National Weather Service Charleston WV
800 AM EST SUN FEB 01 2015

Note: "fair" indicates few or no clouds below 12,000 feet with no
significant weather and/or obstructions to visibility.

WVZ003-011400-
Northern Panhandle of West Virginia

CITY           SKY/WX    TMP DP  RH WIND       PRES   REMARKS
WHEELING       LGT SNOW  27  25  92 S6        30.16S VSB 3/4
$$

WVZ009-011400-
Northwest West Virginia

CITY           SKY/WX    TMP DP  RH WIND       PRES   REMARKS
PARKERSBURG    CLOUDY    32  29  88 E3        30.21F
$$

WVZ006-011400-
Western West Virginia

CITY           SKY/WX    TMP DP  RH WIND       PRES   REMARKS
HUNTINGTON     MIX PCPN  33  21  61 N6        30.14F
$$

WVZ015-011400-
West Central West Virginia

CITY           SKY/WX    TMP DP  RH WIND       PRES   REMARKS
CHARLESTON     CLOUDY    31  23  72 N3        30.16F
$$

WVZ022-031-011400-
North Central West Virginia

CITY           SKY/WX    TMP DP  RH WIND       PRES   REMARKS
CLARKSBURG     CLOUDY    29  27  92 CALM      30.18F
MORGANTOWN     LGT SNOW  29  25  85 CALM      30.18F FOG
$$

WVZ025-035-042-045-011400-
Southern West Virginia

CITY           SKY/WX    TMP DP  RH WIND       PRES   REMARKS
BECKLEY        CLOUDY    32  16  51 E5        30.15F
LOGAN          CLOUDY    34  16  47 CALM      30.13F
BLUEFIELD      CLOUDY    35  11  36 E5        30.14F
LEWISBURG      CLOUDY    31  17  58 CALM      30.19R
$$

WVZ047-011400-
Northern Mountains of West Virginia

CITY           SKY/WX    TMP DP  RH WIND       PRES   REMARKS
ELKINS         CLOUDY    28  23  81 NW3       30.17S
$$

WVZ052-011400-
Eastern Panhandle of West Virginia

CITY           SKY/WX    TMP DP  RH WIND       PRES   REMARKS
MARTINSBURG    CLOUDY    29  15  56 SW3       30.23S
PETERSBURG     CLOUDY    29  20  68 CALM      30.21S
$$



USA.gov is the U.S. government's official web portal to all federal, state and local government web resources and services.